Weather History for Reggio Calabria, Italy

Change the Weather History Date:

Tuesday, March 12, 2013

  Actual Average Record
Temperature  
Mean Temperature 58 °F -  
Max Temperature 64 °F 62 °F 73 °F (2001)
Min Temperature 53 °F 51 °F 39 °F (1998)
Degree Days  
Heating Degree Days 6    
Growing Degree Days 8 (Base 50)    
Moisture  
Dew Point 46 °F    
Average Humidity 67    
Maximum Humidity 88    
Minimum Humidity 49    
Precipitation  
Precipitation 0.00 in - - ()
Sea Level Pressure  
Sea Level Pressure 29.69 in    
Wind  
Wind Speed 7 mph ()    
Max Wind Speed 16 mph    
Max Gust Speed 28 mph    
Visibility 6.2 miles    
Events Rain    
Averages and records for this station are not official NWS values.
T = Trace of Precipitation, MM = Missing Value Source: Averaged Metar Reports

Daily Weather History Graph

Daily Weather History Graph

Search for Another Location

Airport:

Trip Planner

Search our weather history database for the weather conditions in past years. The results will help you decide how hot, cold, wet, or windy it might be!

Date:

Astronomy

Mar. 12, 2013 Rise Set
Actual Time 6:13 AM CET 6:01 PM CET
Civil Twilight 5:46 AM CET 6:27 PM CET
Nautical Twilight 5:16 AM CET 6:58 PM CET
Astronomical Twilight 4:45 AM CET 7:29 PM CET
Moon 6:11 AM CET (3/12) 6:56 PM CET (3/12)
Length of Visible Light 12h 41m
Length of Day
11h 48m
New Moon, 0% of the Moon is Illuminated
Mar 12
New Moon
Mar 19
First Quarter
Mar 27
Full
Apr 3
Last Quarter
Apr 10
New

Hourly Weather History & Observations

Time (CET) Temp. Dew Point Humidity Pressure Visibility Wind Dir Wind Speed Gust Speed Precip Events Conditions
5:50 AM 53.6 °F 42.8 °F 67% 29.71 in 6.2 mi NNE 6.9 mph - N/A   Scattered Clouds
6:50 AM 55.4 °F 42.8 °F 63% 29.71 in 6.2 mi NNE 4.6 mph - N/A   Scattered Clouds
7:50 AM 57.2 °F 42.8 °F 59% 29.71 in 6.2 mi NNE 4.6 mph - N/A   Scattered Clouds
8:50 AM 60.8 °F 42.8 °F 52% 29.71 in 6.2 mi ENE 6.9 mph - N/A   Scattered Clouds
9:50 AM 60.8 °F 42.8 °F 52% 29.71 in 6.2 mi NNE 9.2 mph - N/A   Scattered Clouds
10:50 AM 62.6 °F 46.4 °F 55% 29.71 in 6.2 mi NNE 13.8 mph - N/A   Scattered Clouds
11:50 AM 62.6 °F 44.6 °F 52% 29.71 in 6.2 mi North 15.0 mph - N/A   Scattered Clouds
12:50 PM 64.4 °F 44.6 °F 49% 29.68 in 6.2 mi North 15.0 mph - N/A   Scattered Clouds
1:50 PM 60.8 °F 50.0 °F 68% 29.68 in 6.2 mi NW 6.9 mph - N/A   Scattered Clouds
2:50 PM 57.2 °F 48.2 °F 72% 29.71 in 6.2 mi SSW 16.1 mph - N/A Rain Light Rain
3:50 PM 57.2 °F 44.6 °F 63% 29.68 in 6.2 mi Variable 4.6 mph - N/A Rain Light Rain
3:57 PM 55.4 °F 44.6 °F 67% 29.68 in 6.2 mi Variable 5.8 mph - N/A Rain Rain
4:11 PM 55.4 °F 44.6 °F 67% 29.68 in 6.2 mi NNW 12.7 mph 27.6 mph N/A Rain Light Rain
4:50 PM 57.2 °F 46.4 °F 67% 29.65 in 6.2 mi ENE 8.1 mph - N/A   Partly Cloudy
5:50 PM 55.4 °F 46.4 °F 72% 29.65 in 6.2 mi NNE 3.5 mph - N/A   Partly Cloudy
6:50 PM 55.4 °F 48.2 °F 77% 29.68 in 6.2 mi Variable 1.2 mph - N/A   Scattered Clouds
7:50 PM 55.4 °F 48.2 °F 77% 29.68 in 6.2 mi NNE 12.7 mph - N/A   Scattered Clouds
8:50 PM 53.6 °F 48.2 °F 82% 29.68 in 6.2 mi NE 8.1 mph - N/A   Scattered Clouds
9:50 PM 55.4 °F 48.2 °F 77% 29.71 in 6.2 mi ESE 4.6 mph - N/A   Scattered Clouds
10:50 PM 53.6 °F 50.0 °F 88% 29.68 in 6.2 mi North 3.5 mph - N/A   Scattered Clouds
11:50 PM 53.6 °F 48.2 °F 82% 29.65 in 6.2 mi NNE 4.6 mph - N/A   Partly Cloudy